Terminal Aerodrome Forecast
Issued by NWS Houston/Galveston, TX

Home | Current Version | Previous Version | Text Only | Print | Product List | Glossary On
Versions: 1 2 3 4 5 6 7 8 9 10 11 12 13 14 15 16 17 18 19 20 21 22 23 24 25 26 27 28 29 30 31 32
000
FTUS44 KHGX 021504 AAA
TAFGLS
TAF AMD
KGLS 021504Z 0215/0312 02008KT P6SM FEW250
     FM021700 08008KT P6SM FEW250
     FM022100 15010KT P6SM FEW250
     FM030300 20005KT P6SM FEW250=

USA.gov is the U.S. government's official web portal to all federal, state and local government web resources and services.